Weather History for Renton, WA

Change the Weather History Date:

Sunday, November 10, 2013

  Actual Average Record
Temperature  
Mean Temperature 48 °F -  
Max Temperature 50 °F 52 °F 66 °F (1997)
Min Temperature 46 °F 40 °F 30 °F (2012)
Degree Days  
Heating Degree Days 17    
Moisture  
Dew Point 44 °F    
Average Humidity 88    
Maximum Humidity 93    
Minimum Humidity 71    
Precipitation  
Precipitation 0.00 in - - ()
Sea Level Pressure  
Sea Level Pressure 30.13 in    
Wind  
Wind Speed 6 mph (NNW)    
Max Wind Speed 13 mph    
Max Gust Speed -    
Visibility 10 miles    
Events      
Averages and records for this station are not official NWS values.
T = Trace of Precipitation, MM = Missing Value Source: NWS Daily Summary

Daily Weather History Graph

Daily Weather History Graph

Search for Another Location

Airport:

Trip Planner

Search our weather history database for the weather conditions in past years. The results will help you decide how hot, cold, wet, or windy it might be!

Date:

Astronomy

Nov. 10, 2013 Rise Set
Actual Time 7:06 AM PST 4:38 PM PST
Civil Twilight 6:33 AM PST 5:11 PM PST
Nautical Twilight 5:56 AM PST 5:48 PM PST
Astronomical Twilight 5:20 AM PST 6:24 PM PST
Moon 1:13 PM PST (11/10) No Moon Set
Length of Visible Light 10h 37m
Length of Day
9h 31m
First Quarter, 56% of the Moon is Illuminated
Nov 10
First Quarter
Nov 17
Full
Nov 25
Last Quarter
Dec 2
New
Dec 9
First Quarter

Hourly Weather History & Observations

Time (PST) Temp. Windchill Dew Point Humidity Pressure Visibility Wind Dir Wind Speed Gust Speed Precip Events Conditions
12:53 AM 46.9 °F - 44.1 °F 90% 30.12 in 10.0 mi NNW 3.5 mph - N/A   Overcast
1:53 AM 46.9 °F - 44.1 °F 90% 30.12 in 10.0 mi Calm Calm - N/A   Overcast
2:36 AM 46.4 °F - 44.6 °F 93% 30.10 in 10.0 mi Calm Calm - N/A   Overcast
2:53 AM 46.9 °F - 44.1 °F 90% 30.12 in 10.0 mi Calm Calm - N/A   Overcast
3:53 AM 46.9 °F - 44.1 °F 90% 30.11 in 10.0 mi NNW 3.5 mph - N/A   Overcast
4:53 AM 46.9 °F - 44.1 °F 90% 30.11 in 10.0 mi NW 9.2 mph - N/A   Overcast
5:53 AM 46.0 °F 40.6 °F 44.1 °F 93% 30.12 in 10.0 mi NW 11.5 mph - N/A   Overcast
6:12 AM 46.4 °F 41.5 °F 44.6 °F 93% 30.10 in 10.0 mi NNW 10.4 mph - N/A   Overcast
6:24 AM 46.4 °F 42.4 °F 44.6 °F 93% 30.11 in 10.0 mi NNW 8.1 mph - N/A   Overcast
6:53 AM 46.0 °F 43.1 °F 44.1 °F 93% 30.14 in 10.0 mi North 5.8 mph - N/A   Overcast
7:53 AM 46.9 °F - 44.1 °F 90% 30.14 in 10.0 mi NNW 6.9 mph - N/A   Overcast
8:53 AM 46.9 °F - 44.1 °F 90% 30.15 in 10.0 mi NNW 9.2 mph - N/A   Overcast
9:53 AM 48.0 °F - 44.1 °F 86% 30.16 in 10.0 mi North 6.9 mph - N/A   Overcast
10:42 AM 48.2 °F - 44.6 °F 87% 30.15 in 10.0 mi NNW 8.1 mph - N/A   Overcast
10:53 AM 48.0 °F - 44.1 °F 86% 30.17 in 10.0 mi NNW 9.2 mph - N/A   Overcast
11:53 AM 48.9 °F - 45.0 °F 86% 30.16 in 10.0 mi North 9.2 mph - N/A   Overcast
12:53 PM 50.0 °F - 45.0 °F 83% 30.14 in 10.0 mi NNW 9.2 mph - N/A   Overcast
1:53 PM 50.0 °F - 45.0 °F 83% 30.14 in 10.0 mi NNW 8.1 mph - N/A   Overcast
2:53 PM 50.0 °F - 46.0 °F 86% 30.14 in 10.0 mi NNW 8.1 mph - N/A   Overcast
3:53 PM 50.0 °F - 45.0 °F 83% 30.14 in 10.0 mi NW 12.7 mph - N/A   Overcast
4:53 PM 50.0 °F - 41.0 °F 71% 30.14 in 10.0 mi NNW 10.4 mph - N/A   Overcast
5:17 PM 48.2 °F - 44.6 °F 87% 30.12 in 10.0 mi NNW 8.1 mph - N/A   Overcast
5:53 PM 48.9 °F - 44.1 °F 83% 30.14 in 10.0 mi NW 10.4 mph - N/A   Overcast
6:53 PM 48.9 °F - 43.0 °F 80% 30.15 in 10.0 mi NNW 9.2 mph - N/A   Overcast
7:53 PM 48.0 °F - 45.0 °F 89% 30.15 in 10.0 mi NNW 9.2 mph - N/A   Overcast
8:14 PM 48.2 °F - 44.6 °F 87% 30.13 in 10.0 mi NNW 8.1 mph - N/A   Mostly Cloudy
8:53 PM 48.0 °F - 45.0 °F 89% 30.15 in 10.0 mi NW 8.1 mph - N/A   Clear
9:53 PM 48.0 °F - 45.0 °F 89% 30.15 in 10.0 mi NW 10.4 mph - N/A   Mostly Cloudy
10:32 PM 46.4 °F 42.4 °F 44.6 °F 93% 30.13 in 10.0 mi NW 8.1 mph - N/A   Partly Cloudy
10:53 PM 46.9 °F - 45.0 °F 93% 30.14 in 10.0 mi NW 9.2 mph - N/A   Scattered Clouds
11:53 PM 46.9 °F - 45.0 °F 93% 30.14 in 10.0 mi NW 8.1 mph - N/A   Partly Cloudy